Terug naar catalogus

STARLINK-32514

ActiefCommunicatieVLEO
NORAD 61965·PAYLOAD·🇺🇸 United States

Gelanceerd Nov 14, 2024 vanaf Cape Canaveral Space Force Station

Loading…

Volgende Passages (komende 24 uur)

TLE

VersSource: CelesTrak SupGP

Epoch: Sep 14, 2026, 20:42 UTC

1 61965C 24210G   26257.86298611  .00007889  00000+0  28568-3 0  2579
2 61965  43.0017 184.4404 0001372 263.3580  70.3453 15.27580942    15

Volg STARLINK-32514 in realtime met AllMySat

Download on the App Store